Content
SEND FEEDBACK

Daily
Averages
Monthly
Summary
United States of America

EL PASO, TEXAS


Home > North America > United States > Texas
Elevation: 1194 meters     Latitude: 31 48N     Longitude: 106 24W

WEATHER
 
SELECT A DAY
Number of Records: 176,167;   Date Range: 1/1/95 - 12/27/14
 
SHARE

PRINT THIS DATA

[ ← Previous Day ]
WEATHER ALMANAC - 18 APRIL, 2013
[ Next Day → ]
[ °F ]   °C
Weather ElementAverageHighLow
Temperature13.3 °C18.9 °C (3:51 pm)7.8 °C (6:51 am)
Dewpoint-12.7 °C-6.7 °C (1:51 am)-23.3 °C (6:51 pm)
Humidity18.2 %34 % (6:51 am)5 % (6:51 pm)
Barometer1012.9 hPa1018.3 hPa (11:51 pm)1009.5 hPa (1:51 am)
Wind Speed18.5 km/h33.3 km/h (3:51 pm)
Wind Gust48.1 km/h (2:51 pm)
Weather ElementAverage
Visibility16.1 km
Wind DirectionW (268.7 °)

Weather ElementTotal
Precipitation---
Heating Degree Days5 (Base 18.3)
Growing Degree Days3.3 (Base 10)
Averaged from 23 records on 18 April, 2013
WEATHER CONDITIONS BREAKOUT
WIND DIRECTION BREAKOUT
WEATHER BY HOUR - 18 APRIL, 2013
[ °F ]   °C
Local TimeTemperatureDewpointHumidityBarometerVisibilityWind DirectionWind SpeedGust SpeedPrecipitationEventsConditions
1:51 AM10.6 °C-6.7 °C29 %1009.5 hPa16.1 kmNorth (350°)18.5 km/hPartly Cloudy
2:51 AM10 °C-7.8 °C28 %1009.5 hPa16.1 kmNorth (360°)13 km/hPartly Cloudy
3:51 AM10 °C-7.8 °C28 %1009.8 hPa16.1 kmNNW (340°)13 km/hScattered Clouds
4:51 AM8.9 °C-8.3 °C29 %1010.5 hPa16.1 kmNorth (10°)7.4 km/hScattered Clouds
5:51 AM8.3 °C-7.8 °C32 %1011.2 hPa16.1 kmNorth (360°)14.8 km/hScattered Clouds
6:51 AM7.8 °C-7.2 °C34 %1012.2 hPa16.1 kmNorth (360°)13 km/hScattered Clouds
7:51 AM8.9 °C-6.7 °C33 %1013.5 hPa16.1 kmNorth (360°)13 km/hScattered Clouds
8:51 AM10.6 °C-7.2 °C28 %1014.2 hPa16.1 kmNNE (30°)18.5 km/hScattered Clouds
9:51 AM11.7 °C-7.8 °C25 %1014.2 hPa16.1 kmNNE (20°)13 km/hScattered Clouds
10:51 AM12.8 °C-8.9 °C22 %1014.2 hPa16.1 kmNNE (20°)9.3 km/hPartly Cloudy
11:51 AM15 °C-12.2 °C14 %1013.5 hPa16.1 kmWest (270°)29.6 km/h42.6 km/hPartly Cloudy
12:51 PM15 °C-12.2 °C14 %1013.5 hPa16.1 kmWest (280°)16.7 km/h29.6 km/hPartly Cloudy
1:51 PM16.7 °C-12.8 °C12 %1012.9 hPa16.1 kmWNW (300°)25.9 km/h37 km/hPartly Cloudy
2:51 PM17.2 °C-14.4 °C11 %1012.5 hPa16.1 kmWest (280°)24.1 km/h48.1 km/hPartly Cloudy
3:51 PM18.9 °C-17.8 °C7 %1011.9 hPa16.1 kmWest (280°)33.3 km/h42.6 km/hPartly Cloudy
4:51 PM18.3 °C-16.7 °C8 %1011.5 hPa16.1 kmWSW (250°)27.8 km/h38.9 km/hClear
5:51 PM18.3 °C-17.2 °C8 %1012.2 hPa16.1 kmWest (270°)22.2 km/h37 km/hClear
6:51 PM18.3 °C-23.3 °C5 %1012.2 hPa16.1 kmWNW (300°)27.8 km/h37 km/hClear
7:51 PM16.7 °C-21.7 °C6 %1013.5 hPa16.1 kmNW (320°)9.3 km/hClear
8:51 PM15 °C-17.2 °C10 %1014.9 hPa16.1 kmNorth (360°)18.5 km/hClear
9:51 PM13.3 °C-16.7 °C11 %1016.3 hPa16.1 kmNorth (350°)16.7 km/hClear
10:51 PM12.2 °C-16.1 °C13 %1016.9 hPa16.1 kmNorth (350°)14.8 km/hClear
11:51 PM11.1 °C-17.2 °C12 %1018.3 hPa16.1 kmNorth (360°)25.9 km/hClear
Hourly data recorded from KELP, located 0 kilometers away from El Paso, Texas







STORIES FROM OUR PARTNERS